Powrót do katalogu

DELTA 1 DEB

AktywnySSO
NORAD 7028·DEBRIS·🇺🇸 United States

Wystrzelony Nov 6, 1973 z Vandenberg Space Force Base

Loading…

Następne Przeloty (najbliższe 24 godziny)

TLE

ŚwieżeSource: Space-Track

Epoka: Sep 14, 2026, 12:30 UTC

1 07028U 73086U   26257.52129630 -.00000025  00000-0  19332-3 0  9990
2 07028 102.6878 276.3457 0082070 323.2794 191.5039 12.24565810362285

Śledź DELTA 1 DEB w czasie rzeczywistym z AllMySat

Download on the App Store